Time,TemperatureF,DewpointF,PressureIn,WindDirection,WindDirectionDegrees,WindSpeedMPH,WindSpeedGustMPH,Humidity,HourlyPrecipIn,Conditions,Clouds,dailyrainin,SoftwareType,DateUTC
2013-02-07 00:03:00,29.6,-2.0,30.41,North,0,4.0,10.0,25,0.00,,,-99.99,WeatherLink 5.7,2013-02-07 05:03:00,
2013-02-07 00:13:00,29.5,-1.2,30.41,North,0,2.0,6.0,26,0.00,,,-99.99,WeatherLink 5.7,2013-02-07 05:13:00,
2013-02-07 00:23:00,29.5,-1.2,30.41,North,0,2.0,5.0,26,0.00,,,-99.99,WeatherLink 5.7,2013-02-07 05:23:00,
2013-02-07 00:33:00,29.2,-1.5,30.41,North,0,3.0,7.0,26,0.00,,,-99.99,WeatherLink 5.7,2013-02-07 05:33:00,
2013-02-07 00:43:00,29.1,-1.6,30.41,North,0,4.0,10.0,26,0.00,,,-99.99,WeatherLink 5.7,2013-02-07 05:43:00,
2013-02-07 00:53:00,28.9,-1.0,30.41,North,0,5.0,11.0,27,0.00,,,-99.99,WeatherLink 5.7,2013-02-07 05:53:00,
2013-02-07 01:03:00,28.8,-1.0,30.41,North,0,4.0,8.0,27,0.00,,,-99.99,WeatherLink 5.7,2013-02-07 06:03:00,
2013-02-07 01:13:00,28.6,-1.2,30.42,North,0,3.0,8.0,27,0.00,,,-99.99,WeatherLink 5.7,2013-02-07 06:13:00,
2013-02-07 01:23:00,28.5,-1.3,30.43,North,0,3.0,8.0,27,0.00,,,-99.99,WeatherLink 5.7,2013-02-07 06:23:00,
2013-02-07 01:33:00,28.3,-1.5,30.43,NNW,337,4.0,10.0,27,0.00,,,-99.99,WeatherLink 5.7,2013-02-07 06:33:00,
2013-02-07 01:43:00,28.1,-1.7,30.42,NNW,337,4.0,9.0,27,0.00,,,-99.99,WeatherLink 5.7,2013-02-07 06:43:00,
2013-02-07 01:53:00,27.8,-1.9,30.42,NNW,337,4.0,9.0,27,0.00,,,-99.99,WeatherLink 5.7,2013-02-07 06:53:00,
2013-02-07 02:03:00,27.8,-1.9,30.43,NNW,337,4.0,10.0,27,0.00,,,-99.99,WeatherLink 5.7,2013-02-07 07:03:00,
2013-02-07 02:13:00,27.7,-2.0,30.43,NNW,337,5.0,8.0,27,0.00,,,-99.99,WeatherLink 5.7,2013-02-07 07:13:00,
2013-02-07 02:23:00,27.5,-2.2,30.42,North,0,5.0,10.0,27,0.00,,,-99.99,WeatherLink 5.7,2013-02-07 07:23:00,
2013-02-07 02:33:00,27.4,-2.3,30.43,North,0,4.0,9.0,27,0.00,,,-99.99,WeatherLink 5.7,2013-02-07 07:33:00,
2013-02-07 02:43:00,27.5,-2.2,30.44,North,0,2.0,6.0,27,0.00,,,-99.99,WeatherLink 5.7,2013-02-07 07:43:00,
2013-02-07 02:53:00,27.5,-2.2,30.44,North,0,2.0,5.0,27,0.00,,,-99.99,WeatherLink 5.7,2013-02-07 07:53:00,
2013-02-07 03:03:00,27.1,-2.5,30.45,North,0,1.0,4.0,27,0.00,,,-99.99,WeatherLink 5.7,2013-02-07 08:03:00,
2013-02-07 03:13:00,26.9,-1.9,30.44,North,0,2.0,6.0,28,0.00,,,-99.99,WeatherLink 5.7,2013-02-07 08:13:00,
2013-02-07 03:23:00,26.8,-1.3,30.45,North,0,2.0,4.0,29,0.00,,,-99.99,WeatherLink 5.7,2013-02-07 08:23:00,
2013-02-07 03:33:00,26.8,-1.3,30.45,North,0,2.0,6.0,29,0.00,,,-99.99,WeatherLink 5.7,2013-02-07 08:33:00,
2013-02-07 03:43:00,26.8,-1.3,30.45,North,0,2.0,6.0,29,0.00,,,-99.99,WeatherLink 5.7,2013-02-07 08:43:00,
2013-02-07 03:53:00,26.6,-0.7,30.45,North,0,4.0,8.0,30,0.00,,,-99.99,WeatherLink 5.7,2013-02-07 08:53:00,
2013-02-07 04:03:00,26.5,-0.8,30.46,North,0,2.0,5.0,30,0.00,,,-99.99,WeatherLink 5.7,2013-02-07 09:03:00,
2013-02-07 04:13:00,26.7,0.1,30.45,North,0,1.0,4.0,31,0.00,,,-99.99,WeatherLink 5.7,2013-02-07 09:13:00,
2013-02-07 04:23:00,26.9,0.2,30.46,North,0,1.0,5.0,31,0.00,,,-99.99,WeatherLink 5.7,2013-02-07 09:23:00,
2013-02-07 04:33:00,26.3,-0.3,30.47,North,0,2.0,4.0,31,0.00,,,-99.99,WeatherLink 5.7,2013-02-07 09:33:00,
2013-02-07 04:43:00,26.3,0.4,30.47,North,0,3.0,7.0,32,0.00,,,-99.99,WeatherLink 5.7,2013-02-07 09:43:00,
2013-02-07 04:53:00,26.4,0.5,30.47,North,0,2.0,4.0,32,0.00,,,-99.99,WeatherLink 5.7,2013-02-07 09:53:00,
2013-02-07 05:03:00,25.9,0.7,30.48,North,0,1.0,3.0,33,0.00,,,-99.99,WeatherLink 5.7,2013-02-07 10:03:00,
2013-02-07 05:13:00,26.1,0.9,30.47,North,0,0.0,2.0,33,0.00,,,-99.99,WeatherLink 5.7,2013-02-07 10:13:00,
2013-02-07 05:23:00,27.7,0.9,30.48,North,0,2.0,3.0,31,0.00,,,-99.99,WeatherLink 5.7,2013-02-07 10:23:00,
2013-02-07 05:33:00,27.9,1.8,30.48,North,0,1.0,3.0,32,0.00,,,-99.99,WeatherLink 5.7,2013-02-07 10:33:00,
2013-02-07 05:43:00,26.1,1.5,30.48,North,0,1.0,4.0,34,0.00,,,-99.99,WeatherLink 5.7,2013-02-07 10:43:00,
2013-02-07 05:53:00,27.2,1.8,30.48,North,0,2.0,3.0,33,0.00,,,-99.99,WeatherLink 5.7,2013-02-07 10:53:00,
2013-02-07 06:03:00,26.7,2.0,30.48,North,0,3.0,6.0,34,0.00,,,-99.99,WeatherLink 5.7,2013-02-07 11:03:00,
2013-02-07 06:13:00,25.3,2.0,30.47,North,0,3.0,6.0,36,0.00,,,-99.99,WeatherLink 5.7,2013-02-07 11:13:00,
2013-02-07 06:23:00,25.2,1.9,30.48,North,0,2.0,6.0,36,0.00,,,-99.99,WeatherLink 5.7,2013-02-07 11:23:00,
2013-02-07 06:33:00,25.5,1.0,30.48,North,0,2.0,6.0,34,0.00,,,-99.99,WeatherLink 5.7,2013-02-07 11:33:00,
2013-02-07 06:43:00,25.7,0.5,30.50,North,0,1.0,3.0,33,0.00,,,-99.99,WeatherLink 5.7,2013-02-07 11:43:00,
2013-02-07 06:53:00,25.8,0.6,30.50,North,0,1.0,3.0,33,0.00,,,-99.99,WeatherLink 5.7,2013-02-07 11:53:00,
2013-02-07 07:03:00,25.7,0.5,30.51,North,0,1.0,3.0,33,0.00,,,-99.99,WeatherLink 5.7,2013-02-07 12:03:00,
2013-02-07 07:13:00,25.8,-0.1,30.51,North,0,4.0,6.0,32,0.00,,,-99.99,WeatherLink 5.7,2013-02-07 12:13:00,
2013-02-07 07:23:00,25.8,0.6,30.52,North,0,3.0,7.0,33,0.00,,,-99.99,WeatherLink 5.7,2013-02-07 12:23:00,
2013-02-07 07:33:00,26.0,0.1,30.53,North,0,5.0,8.0,32,0.00,,,-99.99,WeatherLink 5.7,2013-02-07 12:33:00,
2013-02-07 07:43:00,26.0,0.1,30.53,North,0,3.0,6.0,32,0.00,,,-99.99,WeatherLink 5.7,2013-02-07 12:43:00,
2013-02-07 07:53:00,26.1,0.2,30.54,North,0,2.0,6.0,32,0.00,,,-99.99,WeatherLink 5.7,2013-02-07 12:53:00,
2013-02-07 08:03:00,26.4,0.5,30.54,North,0,3.0,7.0,32,0.00,,,-99.99,WeatherLink 5.7,2013-02-07 13:03:00,
2013-02-07 08:13:00,26.5,0.6,30.54,North,0,3.0,6.0,32,0.00,,,-99.99,WeatherLink 5.7,2013-02-07 13:13:00,
2013-02-07 08:23:00,26.8,0.8,30.54,North,0,2.0,6.0,32,0.00,,,-99.99,WeatherLink 5.7,2013-02-07 13:23:00,
2013-02-07 08:33:00,26.7,0.1,30.54,North,0,3.0,7.0,31,0.00,,,-99.99,WeatherLink 5.7,2013-02-07 13:33:00,
2013-02-07 08:43:00,26.6,0.7,30.55,North,0,4.0,8.0,32,0.00,,,-99.99,WeatherLink 5.7,2013-02-07 13:43:00,
2013-02-07 08:53:00,26.8,0.2,30.54,North,0,4.0,8.0,31,0.00,,,-99.99,WeatherLink 5.7,2013-02-07 13:53:00,
2013-02-07 09:03:00,26.9,0.2,30.54,North,0,5.0,10.0,31,0.00,,,-99.99,WeatherLink 5.7,2013-02-07 14:03:00,
2013-02-07 09:13:00,27.2,0.5,30.54,NNE,22,4.0,6.0,31,0.00,,,-99.99,WeatherLink 5.7,2013-02-07 14:13:00,
2013-02-07 09:23:00,27.3,1.3,30.54,NNE,22,3.0,6.0,32,0.00,,,-99.99,WeatherLink 5.7,2013-02-07 14:23:00,
2013-02-07 09:33:00,27.9,1.8,30.54,NNE,22,3.0,5.0,32,0.00,,,-99.99,WeatherLink 5.7,2013-02-07 14:33:00,
2013-02-07 09:43:00,29.1,0.7,30.54,NNE,22,4.0,7.0,29,0.00,,,-99.99,WeatherLink 5.7,2013-02-07 14:43:00,
2013-02-07 09:53:00,27.8,1.0,30.54,NNE,22,3.0,6.0,31,0.00,,,-99.99,WeatherLink 5.7,2013-02-07 14:53:00,
2013-02-07 10:03:00,27.9,1.1,30.54,NE,45,3.0,7.0,31,0.00,,,-99.99,WeatherLink 5.7,2013-02-07 15:03:00,
2013-02-07 10:13:00,27.9,1.1,30.55,NNE,22,5.0,8.0,31,0.00,,,-99.99,WeatherLink 5.7,2013-02-07 15:13:00,
2013-02-07 10:23:00,28.6,1.0,30.55,NNE,22,3.0,7.0,30,0.00,,,-99.99,WeatherLink 5.7,2013-02-07 15:23:00,
2013-02-07 10:33:00,28.8,1.2,30.55,NNE,22,3.0,8.0,30,0.00,,,-99.99,WeatherLink 5.7,2013-02-07 15:33:00,
2013-02-07 10:43:00,28.8,1.2,30.55,North,0,4.0,9.0,30,0.00,,,-99.99,WeatherLink 5.7,2013-02-07 15:43:00,
2013-02-07 10:53:00,28.7,1.8,30.55,NNE,22,5.0,10.0,31,0.00,,,-99.99,WeatherLink 5.7,2013-02-07 15:53:00,
2013-02-07 11:03:00,28.9,2.7,30.55,NE,45,4.0,7.0,32,0.00,,,-99.99,WeatherLink 5.7,2013-02-07 16:03:00,
2013-02-07 11:13:00,29.2,2.9,30.55,NNE,22,4.0,8.0,32,0.00,,,-99.99,WeatherLink 5.7,2013-02-07 16:13:00,
2013-02-07 11:23:00,29.3,3.0,30.54,ENE,67,5.0,9.0,32,0.00,,,-99.99,WeatherLink 5.7,2013-02-07 16:23:00,
2013-02-07 11:33:00,29.5,2.5,30.53,NNE,22,4.0,7.0,31,0.00,,,-99.99,WeatherLink 5.7,2013-02-07 16:33:00,
2013-02-07 11:43:00,31.0,3.1,30.53,East,90,3.0,9.0,30,0.00,,,-99.99,WeatherLink 5.7,2013-02-07 16:43:00,
2013-02-07 11:53:00,32.1,4.1,30.53,NE,45,3.0,7.0,30,0.00,,,-99.99,WeatherLink 5.7,2013-02-07 16:53:00,
2013-02-07 12:03:00,31.2,4.7,30.53,ESE,112,2.0,7.0,32,0.00,,,-99.99,WeatherLink 5.7,2013-02-07 17:03:00,
2013-02-07 12:13:00,34.6,5.5,30.53,ESE,112,3.0,7.0,29,0.00,,,-99.99,WeatherLink 5.7,2013-02-07 17:13:00,
2013-02-07 12:23:00,33.8,4.1,30.53,ESE,112,2.0,7.0,28,0.00,,,-99.99,WeatherLink 5.7,2013-02-07 17:23:00,
2013-02-07 12:33:00,32.4,4.4,30.52,NE,45,3.0,7.0,30,0.00,,,-99.99,WeatherLink 5.7,2013-02-07 17:33:00,
2013-02-07 12:43:00,34.5,4.7,30.51,SE,135,3.0,7.0,28,0.00,,,-99.99,WeatherLink 5.7,2013-02-07 17:43:00,
2013-02-07 12:53:00,37.4,6.4,30.51,SE,135,3.0,7.0,27,0.00,,,-99.99,WeatherLink 5.7,2013-02-07 17:53:00,
2013-02-07 13:03:00,37.6,7.4,30.51,SE,135,2.0,7.0,28,0.00,,,-99.99,WeatherLink 5.7,2013-02-07 18:03:00,
2013-02-07 13:13:00,35.5,5.6,30.51,ESE,112,4.0,10.0,28,0.00,,,-99.99,WeatherLink 5.7,2013-02-07 18:13:00,
2013-02-07 13:23:00,36.2,5.4,30.51,ESE,112,4.0,9.0,27,0.00,,,-99.99,WeatherLink 5.7,2013-02-07 18:23:00,
2013-02-07 13:33:00,33.6,4.7,30.50,East,90,3.0,9.0,29,0.00,,,-99.99,WeatherLink 5.7,2013-02-07 18:33:00,
2013-02-07 13:43:00,33.6,3.9,30.50,ESE,112,5.0,9.0,28,0.00,,,-99.99,WeatherLink 5.7,2013-02-07 18:43:00,
2013-02-07 13:53:00,33.7,3.2,30.50,ESE,112,5.0,8.0,27,0.00,,,-99.99,WeatherLink 5.7,2013-02-07 18:53:00,
2013-02-07 14:03:00,34.7,4.9,30.49,ESE,112,4.0,9.0,28,0.00,,,-99.99,WeatherLink 5.7,2013-02-07 19:03:00,
2013-02-07 14:13:00,33.8,5.6,30.50,East,90,4.0,8.0,30,0.00,,,-99.99,WeatherLink 5.7,2013-02-07 19:13:00,
2013-02-07 14:24:00,35.0,5.9,30.49,ESE,112,4.0,8.0,29,0.00,,,-99.99,WeatherLink 5.7,2013-02-07 19:24:00,
2013-02-07 14:33:00,34.2,3.6,30.48,ENE,67,4.0,9.0,27,0.00,,,-99.99,WeatherLink 5.7,2013-02-07 19:33:00,
2013-02-07 14:43:00,34.5,3.9,30.48,ESE,112,4.0,8.0,27,0.00,,,-99.99,WeatherLink 5.7,2013-02-07 19:43:00,
2013-02-07 14:53:00,35.8,5.0,30.48,ESE,112,3.0,9.0,27,0.00,,,-99.99,WeatherLink 5.7,2013-02-07 19:53:00,
2013-02-07 15:03:00,37.2,4.5,30.48,ESE,112,4.0,7.0,25,0.00,,,-99.99,WeatherLink 5.7,2013-02-07 20:03:00,
2013-02-07 15:13:00,36.0,5.2,30.48,ESE,112,3.0,8.0,27,0.00,,,-99.99,WeatherLink 5.7,2013-02-07 20:13:00,
2013-02-07 15:23:00,37.6,6.6,30.48,ESE,112,4.0,8.0,27,0.00,,,-99.99,WeatherLink 5.7,2013-02-07 20:23:00,
2013-02-07 15:33:00,37.8,5.1,30.47,SE,135,4.0,8.0,25,0.00,,,-99.99,WeatherLink 5.7,2013-02-07 20:33:00,
2013-02-07 15:43:00,37.2,6.2,30.47,ESE,112,4.0,8.0,27,0.00,,,-99.99,WeatherLink 5.7,2013-02-07 20:43:00,
2013-02-07 15:53:00,37.6,6.6,30.47,SE,135,3.0,6.0,27,0.00,,,-99.99,WeatherLink 5.7,2013-02-07 20:53:00,
2013-02-07 16:03:00,38.2,7.1,30.47,ESE,112,3.0,7.0,27,0.00,,,-99.99,WeatherLink 5.7,2013-02-07 21:03:00,
2013-02-07 16:13:00,39.2,7.1,30.46,ESE,112,2.0,7.0,26,0.00,,,-99.99,WeatherLink 5.7,2013-02-07 21:13:00,
2013-02-07 16:23:00,39.6,6.6,30.46,SE,135,3.0,6.0,25,0.00,,,-99.99,WeatherLink 5.7,2013-02-07 21:23:00,
2013-02-07 16:33:00,38.7,4.0,30.46,SE,135,4.0,7.0,23,0.00,,,-99.99,WeatherLink 5.7,2013-02-07 21:33:00,
2013-02-07 16:43:00,38.9,6.9,30.45,SE,135,3.0,255.0,26,0.00,,,-99.99,WeatherLink 5.7,2013-02-07 21:43:00,
2013-02-07 16:53:00,39.1,5.3,30.45,SE,135,3.0,8.0,24,0.00,,,-99.99,WeatherLink 5.7,2013-02-07 21:53:00,
2013-02-07 17:03:00,39.0,5.2,30.45,SE,135,4.0,10.0,24,0.00,,,-99.99,WeatherLink 5.7,2013-02-07 22:03:00,
2013-02-07 17:13:00,38.3,4.6,30.45,SE,135,4.0,10.0,24,0.00,,,-99.99,WeatherLink 5.7,2013-02-07 22:13:00,
2013-02-07 17:23:00,38.0,4.3,30.45,SE,135,4.0,10.0,24,0.00,,,-99.99,WeatherLink 5.7,2013-02-07 22:23:00,
2013-02-07 17:33:00,36.9,3.4,30.45,ESE,112,5.0,12.0,24,0.00,,,-99.99,WeatherLink 5.7,2013-02-07 22:33:00,
2013-02-07 17:43:00,36.6,4.0,30.45,ESE,112,4.0,9.0,25,0.00,,,-99.99,WeatherLink 5.7,2013-02-07 22:43:00,
2013-02-07 17:53:00,37.6,4.9,30.45,ESE,112,4.0,10.0,25,0.00,,,-99.99,WeatherLink 5.7,2013-02-07 22:53:00,
2013-02-07 18:03:00,36.2,5.4,30.45,ESE,112,5.0,10.0,27,0.00,,,-99.99,WeatherLink 5.7,2013-02-07 23:03:00,
2013-02-07 18:13:00,36.1,5.3,30.46,ESE,112,5.0,12.0,27,0.00,,,-99.99,WeatherLink 5.7,2013-02-07 23:13:00,
2013-02-07 18:23:00,35.0,5.1,30.46,ESE,112,5.0,11.0,28,0.00,,,-99.99,WeatherLink 5.7,2013-02-07 23:23:00,
2013-02-07 18:33:00,34.6,8.4,30.46,ESE,112,5.0,9.0,33,0.00,,,-99.99,WeatherLink 5.7,2013-02-07 23:33:00,
2013-02-07 18:43:00,35.7,8.7,30.46,ESE,112,4.0,8.0,32,0.00,,,-99.99,WeatherLink 5.7,2013-02-07 23:43:00,
2013-02-07 18:53:00,35.0,11.3,30.47,ESE,112,5.0,9.0,37,0.00,,,-99.99,WeatherLink 5.7,2013-02-07 23:53:00,
2013-02-07 19:03:00,36.6,12.1,30.47,ESE,112,4.0,7.0,36,0.00,,,-99.99,WeatherLink 5.7,2013-02-08 00:03:00,
2013-02-07 19:13:00,34.3,14.1,30.47,ESE,112,6.0,12.0,43,0.00,,,-99.99,WeatherLink 5.7,2013-02-08 00:13:00,
2013-02-07 19:23:00,33.9,13.2,30.47,ESE,112,5.0,9.0,42,0.00,,,-99.99,WeatherLink 5.7,2013-02-08 00:23:00,
2013-02-07 19:33:00,33.9,14.3,30.47,ESE,112,4.0,9.0,44,0.00,,,-99.99,WeatherLink 5.7,2013-02-08 00:33:00,
2013-02-07 19:43:00,33.2,14.1,30.47,East,90,5.0,10.0,45,0.00,,,-99.99,WeatherLink 5.7,2013-02-08 00:43:00,
2013-02-07 19:53:00,33.4,14.3,30.46,East,90,3.0,8.0,45,0.00,,,-99.99,WeatherLink 5.7,2013-02-08 00:53:00,
2013-02-07 20:03:00,32.7,14.7,30.46,East,90,5.0,10.0,47,0.00,,,-99.99,WeatherLink 5.7,2013-02-08 01:03:00,
2013-02-07 20:13:00,32.6,14.1,30.46,East,90,4.0,9.0,46,0.00,,,-99.99,WeatherLink 5.7,2013-02-08 01:13:00,
2013-02-07 20:23:00,33.2,14.6,30.45,East,90,5.0,10.0,46,0.00,,,-99.99,WeatherLink 5.7,2013-02-08 01:23:00,
2013-02-07 20:33:00,32.8,14.8,30.45,East,90,4.0,10.0,47,0.00,,,-99.99,WeatherLink 5.7,2013-02-08 01:33:00,
2013-02-07 20:43:00,32.9,15.3,30.45,East,90,5.0,9.0,48,0.00,,,-99.99,WeatherLink 5.7,2013-02-08 01:43:00,
2013-02-07 20:53:00,32.7,15.1,30.45,ENE,67,3.0,8.0,48,0.00,,,-99.99,WeatherLink 5.7,2013-02-08 01:53:00,
2013-02-07 21:03:00,32.5,15.4,30.44,ENE,67,3.0,7.0,49,0.00,,,-99.99,WeatherLink 5.7,2013-02-08 02:03:00,
2013-02-07 21:13:00,33.1,16.0,30.44,East,90,5.0,11.0,49,0.00,,,-99.99,WeatherLink 5.7,2013-02-08 02:13:00,
2013-02-07 21:23:00,33.3,16.2,30.44,East,90,4.0,10.0,49,0.00,,,-99.99,WeatherLink 5.7,2013-02-08 02:23:00,
2013-02-07 21:33:00,33.3,16.6,30.44,ENE,67,3.0,9.0,50,0.00,,,-99.99,WeatherLink 5.7,2013-02-08 02:33:00,
2013-02-07 21:43:00,33.1,17.4,30.44,ENE,67,5.0,9.0,52,0.00,,,-99.99,WeatherLink 5.7,2013-02-08 02:43:00,
2013-02-07 21:53:00,33.2,17.9,30.43,ENE,67,4.0,8.0,53,0.00,,,-99.99,WeatherLink 5.7,2013-02-08 02:53:00,
2013-02-07 22:03:00,32.8,17.5,30.43,NE,45,4.0,7.0,53,0.00,,,-99.99,WeatherLink 5.7,2013-02-08 03:03:00,
2013-02-07 22:13:00,32.1,16.9,30.43,NE,45,4.0,9.0,53,0.00,,,-99.99,WeatherLink 5.7,2013-02-08 03:13:00,
2013-02-07 22:23:00,31.8,16.6,30.42,NE,45,5.0,8.0,53,0.00,,,-99.99,WeatherLink 5.7,2013-02-08 03:23:00,
2013-02-07 22:33:00,31.7,16.1,30.42,NE,45,4.0,7.0,52,0.00,,,-99.99,WeatherLink 5.7,2013-02-08 03:33:00,
2013-02-07 22:43:00,31.6,16.4,30.41,NNE,22,5.0,11.0,53,0.00,,,-99.99,WeatherLink 5.7,2013-02-08 03:43:00,
2013-02-07 22:53:00,31.7,16.5,30.41,NE,45,4.0,9.0,53,0.00,,,-99.99,WeatherLink 5.7,2013-02-08 03:53:00,
2013-02-07 23:03:00,31.7,16.9,30.40,NE,45,6.0,10.0,54,0.00,,,-99.99,WeatherLink 5.7,2013-02-08 04:03:00,
2013-02-07 23:13:00,31.8,17.5,30.39,ENE,67,4.0,10.0,55,0.00,,,-99.99,WeatherLink 5.7,2013-02-08 04:13:00,
2013-02-07 23:23:00,32.1,17.7,30.38,ENE,67,4.0,8.0,55,0.00,,,-99.99,WeatherLink 5.7,2013-02-08 04:23:00,
2013-02-07 23:33:00,32.0,18.1,30.37,NE,45,5.0,9.0,56,0.00,,,-99.99,WeatherLink 5.7,2013-02-08 04:33:00,
2013-02-07 23:43:00,32.1,18.6,30.37,NE,45,4.0,8.0,57,0.00,,,-99.99,WeatherLink 5.7,2013-02-08 04:43:00,
2013-02-07 23:53:00,32.1,18.6,30.37,NE,45,5.0,9.0,57,0.00,,,-99.99,WeatherLink 5.7,2013-02-08 04:53:00,